CZ-2C DEB, 40290

Orbit data source: Space-Track

CZ-2C DEB, 40290 is space debris in SSO originally from a launch on Mon, 27 Oct 2014 UTC launched from the Jiuquan Satellite Launch Center, China (JSC). Debris objects in space refer to the collection of defunct objects orbiting the Earth. Examples of debris include non-operational satellites, rocket bodies, and fragments generated from explosions, collisions, or faulty payload assembly.

Loading next visibility...
Identifier
40290, 2014-066E
Orbit
SSO
Country
Flag of CNCN / PRC
Related business
Manufacturer
CALT
Mission
Spacecraft
Bus & Motor
Unknown
Mass
1 kg wet, 1 kg dry
Launch date (UTC)
2014-10-27 (11 years ago)
Launch vehicle
Unknown
Launch site
Jiuquan Satellite Launch Center, China (JSC)
Object type
Payload
Rocket body
Debris
Shape & HBR
Cone, 0.1 m
Radar Cross Section
0.025 m², Small (<0.1 m²)

Expand to show TLE details & history
Last TLE update: 6 hours ago

TLE from 6 hours ago
0 CZ-2C DEB
1 40290U 14066E   25351.88516935  .00014493  00000-0  13903-2 0  9992
2 40290  97.9226 321.9713 0051796  73.8450 286.8461 14.92186856592879
Epoch: 2025-12-17T21:14Z
TLE epoch observation values (Epoch: 2025-12-17T21:14:38.631Z)
Latitude
-0.00003°
Longitude
-83.43827°
Altitude
583.864 km
Speed
7.574 km/s
True Right ascension
21h 27m 53s
True Declination
0° 00' 00"
Sunlit
Object was in daylight at epoch
Visualization orbit readout
Latitude
Unknown
Longitude
Unknown
Altitude
Unknown
Speed
Unknown
Apparent Right ascension
Unknown
Apparent Declination
Unknown
Sunlit
N/A
Visualization observer readout
Local Sidereal Time
02:28:56
Azimuth
Unknown
Elevation
Unknown
Doppler factor
Unknown
Orbital elements
Apogee altitude
624.226 km
Perigee altitude
552.061 km
Semi-major axis
6,966.281 km
Eccentricity
0.00518
Inclination
97.9226°
RAAN
321.9713°
Arg. of periapsis
73.845°
True anomaly
286.27697°
Mean anomaly
286.8461°
Eccentric anomaly
286.56164°
Mean motion
3.73286 °/min
Orbital period
96.44 mins
BSTAR
0.0013903
Loading maneuver chart data...
Computing Atmospheric mass density...
Loading historical data...
Loading historical data...
Loading historical data...
Loading historical data...
Loading historical data...
Loading historical data...
Loading historical data...
Other satellites on launch #66 in the year 2014 (2014-10-27 UTC)

Documentation

Showing up to 5 results
|